Location: Ebenezer
(18.2167°N, 63.0667°W)
Time: 00:53:17
(UTC+00:00)

GPS 2-14 Rocket1 - Pass Details

Date: 26 January 2020
Orbit: 477 x 542 km, 20.7° (Epoch: 25 February)

Event Time Altitude Azimuth Distance (km) Brightness Sun altitude
Rises 22:26:04 0° 249° (WSW) 2,524 9.0 -6.0°
Reaches altitude 10° 22:28:16 10° 246° (WSW) 1,654 7.1 -6.5°
Maximum altitude 22:32:02 61° 165° (SSE) 557 2.9 -7.4°
Drops below altitude 10° 22:35:54 10° 85° (E) 1,692 4.7 -8.3°
Enters shadow 22:35:54 10° 85° (E) 1,693 4.7 -8.3°
